TimeEDT,TemperatureF,Dew PointF,Humidity,Sea Level PressureIn,VisibilityMPH,Wind Direction,Wind SpeedMPH,Gust SpeedMPH,PrecipitationIn,Events,Conditions,WindDirDegrees,DateUTC
12:16 AM,62.6,60.8,94,29.97,10.0,SSE,3.5,-,N/A,,Clear,160,2013-08-07 04:16:00
12:35 AM,62.6,59.0,88,29.97,10.0,Calm,Calm,-,N/A,,Clear,0,2013-08-07 04:35:00
12:56 AM,62.6,59.0,88,29.97,10.0,Calm,Calm,-,N/A,,Clear,0,2013-08-07 04:56:00
1:16 AM,62.6,59.0,88,29.97,10.0,Calm,Calm,-,N/A,,Clear,0,2013-08-07 05:16:00
1:35 AM,62.6,60.8,94,29.97,10.0,Calm,Calm,-,N/A,,Clear,0,2013-08-07 05:35:00
1:56 AM,62.6,60.8,94,29.96,10.0,SSE,3.5,-,N/A,,Clear,150,2013-08-07 05:56:00
2:16 AM,64.4,60.8,88,29.96,10.0,SSE,4.6,-,N/A,,Clear,160,2013-08-07 06:16:00
2:35 AM,62.6,60.8,94,29.97,10.0,Calm,Calm,-,N/A,,Clear,0,2013-08-07 06:35:00
2:56 AM,62.6,60.8,94,29.97,10.0,Calm,Calm,-,N/A,,Mostly Cloudy,0,2013-08-07 06:56:00
3:15 AM,66.2,60.8,83,29.96,10.0,South,3.5,-,N/A,,Overcast,180,2013-08-07 07:15:00
3:36 AM,66.2,60.8,83,29.95,10.0,South,4.6,-,N/A,,Scattered Clouds,170,2013-08-07 07:36:00
3:56 AM,66.2,60.8,83,29.96,10.0,South,3.5,-,N/A,,Clear,170,2013-08-07 07:56:00
4:15 AM,66.2,60.8,83,29.95,10.0,South,3.5,-,N/A,,Clear,170,2013-08-07 08:15:00
4:36 AM,66.2,62.6,88,29.95,10.0,Calm,Calm,-,N/A,,Mostly Cloudy,0,2013-08-07 08:36:00
4:56 AM,66.2,62.6,88,29.95,10.0,South,3.5,-,N/A,,Scattered Clouds,170,2013-08-07 08:56:00
5:15 AM,66.2,62.6,88,29.95,10.0,Calm,Calm,-,N/A,,Clear,0,2013-08-07 09:15:00
5:36 AM,64.4,62.6,94,29.95,10.0,Calm,Calm,-,N/A,,Clear,0,2013-08-07 09:36:00
5:56 AM,64.4,62.6,94,29.94,10.0,SE,3.5,-,N/A,,Clear,140,2013-08-07 09:56:00
6:15 AM,64.4,62.6,94,29.94,10.0,Calm,Calm,-,N/A,,Clear,0,2013-08-07 10:15:00
6:36 AM,62.6,60.8,94,29.95,10.0,Calm,Calm,-,N/A,,Scattered Clouds,0,2013-08-07 10:36:00
6:56 AM,64.4,62.6,94,29.94,10.0,SE,3.5,-,N/A,,Mostly Cloudy,140,2013-08-07 10:56:00
7:15 AM,66.2,62.6,88,29.95,10.0,Calm,Calm,-,N/A,,Overcast,0,2013-08-07 11:15:00
7:36 AM,66.2,62.6,88,29.94,10.0,SE,3.5,-,N/A,,Overcast,140,2013-08-07 11:36:00
7:56 AM,68.0,62.6,83,29.95,10.0,South,3.5,-,N/A,,Mostly Cloudy,170,2013-08-07 11:56:00
8:15 AM,68.0,64.4,88,29.96,10.0,Calm,Calm,-,N/A,,Mostly Cloudy,0,2013-08-07 12:15:00
8:36 AM,68.0,64.4,88,29.95,10.0,South,3.5,-,N/A,,Overcast,170,2013-08-07 12:36:00
8:56 AM,69.8,64.4,83,29.95,10.0,South,3.5,-,N/A,,Mostly Cloudy,180,2013-08-07 12:56:00
9:15 AM,69.8,64.4,83,29.96,10.0,SSW,4.6,-,N/A,,Overcast,200,2013-08-07 13:15:00
9:36 AM,71.6,64.4,78,29.96,10.0,SSW,3.5,-,N/A,,Overcast,200,2013-08-07 13:36:00
9:56 AM,71.6,66.2,83,29.97,10.0,SSW,4.6,-,N/A,,Mostly Cloudy,200,2013-08-07 13:56:00
10:15 AM,73.4,68.0,83,29.96,10.0,SSW,5.8,-,N/A,,Scattered Clouds,210,2013-08-07 14:15:00
10:36 AM,77.0,69.8,78,29.96,7.0,SSW,5.8,-,N/A,,Scattered Clouds,200,2013-08-07 14:36:00
10:56 AM,77.0,69.8,78,29.96,7.0,SSW,5.8,-,N/A,,Scattered Clouds,210,2013-08-07 14:56:00
11:15 AM,77.0,69.8,78,29.96,7.0,SW,6.9,-,N/A,,Unknown,220,2013-08-07 15:15:00
11:36 AM,78.8,69.8,74,29.96,7.0,SSW,4.6,-,N/A,,Mostly Cloudy,200,2013-08-07 15:36:00
11:56 AM,80.6,69.8,70,29.96,7.0,South,6.9,-,N/A,,Mostly Cloudy,190,2013-08-07 15:56:00
12:15 PM,80.6,69.8,70,29.95,7.0,South,9.2,-,N/A,,Mostly Cloudy,180,2013-08-07 16:15:00
12:36 PM,80.6,69.8,70,29.95,10.0,SSW,4.6,-,N/A,,Scattered Clouds,210,2013-08-07 16:36:00
12:56 PM,80.6,68.0,65,29.95,10.0,SSW,9.2,-,N/A,,Scattered Clouds,210,2013-08-07 16:56:00
1:15 PM,82.4,68.0,62,29.95,10.0,SSW,6.9,-,N/A,,Clear,210,2013-08-07 17:15:00
1:36 PM,82.4,68.0,62,29.94,10.0,SSW,6.9,-,N/A,,Mostly Cloudy,200,2013-08-07 17:36:00
1:56 PM,82.4,68.0,62,29.95,7.0,SW,6.9,-,N/A,,Overcast,220,2013-08-07 17:56:00
2:15 PM,82.4,68.0,62,29.94,7.0,SSW,4.6,-,N/A,,Mostly Cloudy,210,2013-08-07 18:15:00
2:36 PM,80.6,68.0,65,29.94,10.0,SSW,5.8,-,N/A,,Overcast,210,2013-08-07 18:36:00
2:56 PM,80.6,69.8,70,29.94,7.0,SW,5.8,-,N/A,,Overcast,230,2013-08-07 18:56:00
3:16 PM,82.4,69.8,66,29.93,10.0,SW,6.9,-,N/A,,Mostly Cloudy,220,2013-08-07 19:16:00
3:36 PM,82.4,68.0,62,29.92,10.0,South,8.1,-,N/A,,Mostly Cloudy,190,2013-08-07 19:36:00
3:55 PM,82.4,68.0,62,29.92,10.0,SSW,5.8,-,N/A,,Mostly Cloudy,210,2013-08-07 19:55:00
4:16 PM,82.4,68.0,62,29.91,10.0,SW,6.9,-,N/A,,Scattered Clouds,220,2013-08-07 20:16:00
4:36 PM,82.4,68.0,62,29.90,7.0,SSW,8.1,-,N/A,,Scattered Clouds,210,2013-08-07 20:36:00
4:55 PM,82.4,68.0,62,29.90,7.0,SW,5.8,-,N/A,,Scattered Clouds,230,2013-08-07 20:55:00
5:16 PM,80.6,68.0,65,29.91,7.0,SW,5.8,-,N/A,,Scattered Clouds,220,2013-08-07 21:16:00
5:36 PM,80.6,68.0,65,29.90,7.0,SSW,4.6,-,N/A,,Mostly Cloudy,210,2013-08-07 21:36:00
5:55 PM,80.6,68.0,65,29.91,7.0,SW,6.9,-,N/A,,Scattered Clouds,230,2013-08-07 21:55:00
6:16 PM,80.6,68.0,65,29.91,7.0,SW,6.9,-,N/A,,Scattered Clouds,220,2013-08-07 22:16:00
6:36 PM,80.6,68.0,65,29.90,7.0,SSW,6.9,-,N/A,,Scattered Clouds,210,2013-08-07 22:36:00
6:55 PM,80.6,68.0,65,29.90,7.0,SSW,4.6,-,N/A,,Clear,210,2013-08-07 22:55:00
7:16 PM,78.8,68.0,69,29.91,7.0,SW,4.6,-,N/A,,Scattered Clouds,220,2013-08-07 23:16:00
7:36 PM,78.8,68.0,69,29.92,7.0,SSW,4.6,-,N/A,,Scattered Clouds,210,2013-08-07 23:36:00
7:55 PM,78.8,68.0,69,29.92,7.0,Calm,Calm,-,N/A,,Scattered Clouds,0,2013-08-07 23:55:00
8:16 PM,77.0,68.0,74,29.92,7.0,SSW,3.5,-,N/A,,Scattered Clouds,200,2013-08-08 00:16:00
8:36 PM,77.0,68.0,74,29.92,7.0,Calm,Calm,-,N/A,,Scattered Clouds,0,2013-08-08 00:36:00
8:55 PM,73.4,68.0,83,29.92,7.0,Calm,Calm,-,N/A,,Scattered Clouds,0,2013-08-08 00:55:00
9:16 PM,73.4,68.0,83,29.92,7.0,Calm,Calm,-,N/A,,Clear,0,2013-08-08 01:16:00
9:36 PM,71.6,68.0,88,29.93,5.0,Calm,Calm,-,N/A,,Clear,0,2013-08-08 01:36:00
9:55 PM,71.6,68.0,88,29.94,5.0,Calm,Calm,-,N/A,,Scattered Clouds,0,2013-08-08 01:55:00
10:16 PM,71.6,68.0,88,29.94,5.0,Calm,Calm,-,N/A,,Mostly Cloudy,0,2013-08-08 02:16:00
10:36 PM,71.6,68.0,88,29.95,7.0,South,3.5,-,N/A,,Scattered Clouds,180,2013-08-08 02:36:00
10:55 PM,71.6,68.0,88,29.95,5.0,Calm,Calm,-,N/A,,Scattered Clouds,0,2013-08-08 02:55:00
11:16 PM,69.8,68.0,94,29.95,5.0,South,3.5,-,N/A,,Mostly Cloudy,170,2013-08-08 03:16:00
11:36 PM,71.6,68.0,88,29.95,5.0,SSE,4.6,-,N/A,,Mostly Cloudy,160,2013-08-08 03:36:00
11:55 PM,71.6,68.0,88,29.95,5.0,SSE,4.6,-,N/A,,Scattered Clouds,160,2013-08-08 03:55:00